Location: Choisy
(48.7685°N, 2.4187°E)
Time: 08:36:10
(UTC+00:00)

ATLAS 3B R/B - Pass Details

Date: 01 December 2023
Orbit: 947 x 1247 km, 63.8° (Epoch: 10 February)

Event Time Altitude Azimuth Distance (km) Brightness Sun altitude
Exits shadow 04:22:36 29° 197° (SSW) 1,879 3.8 -28.6°
Maximum altitude 04:26:21 67° 124° (SE) 1,220 3.0 -28.0°
Drops below altitude 10° 04:33:45 10° 44° (NE) 3,130 5.6 -26.8°
Sets 04:36:36 0° 42° (NE) 4,129 6.3 -26.3°
